sat.trackr.live / text

‹ back to catalog

STARLINK-34782

NORAD 65358 · 2025-190H

PAYLOAD ACTIVE UNKNOWN

§ Identity

Operator
Country
US
Launch date
2025-08-28
Launch site
AFETR
Launch vehicle
Mass (kg)
RCS (m²)

Purposes: comms

External: N2YO · Heavens-Above · Gunter

§ Orbital elements

Epoch: 2026-09-20T22:14:30.772320Z

Period
93.85 min
Inclination
53.1597°
Eccentricity
0.0000719
Mean motion
15.34392199 rev/d
Perigee alt
462.2 km
Apogee alt
463.2 km
Semi-major
6,840.9 km
B*
-1.7687e-5
RAAN
339.4302°
Arg perigee
91.3289°
Mean anomaly
268.7796°
Rev number
5,967

§ Raw data

STARLINK-347821 65358U 25190H   26263.92674505 -.00000973  00000+0 -17687-4 0  99942 65358  53.1597 339.4302 0000719  91.3289 268.7796 15.34392199 59670

JSON: /api/v1/satellites/65358 · /tle

For live sub-satellite position, see the globe view (requires WebGL).

§ Visibility from observer

Set your observer location to see the next 7 days of passes ≥ 10°. The values pass through the URL so the page stays shareable.

No JS? Fill the form by hand. The geolocation button needs JavaScript.